{"data":{"norad_id":52098,"intl_designator":"2022-029L","name":"STARLINK-3665","alt_names":[],"object_type":"PAYLOAD","status":"ACTIVE","operator":null,"country":"US","launch_date":"2022-03-19","launch_site_code":"AFETR","launch_vehicle":null,"mission":null,"orbit_class":"UNKNOWN","rcs_meters":null,"size_class":null,"mass_kg":null,"dimensions":null,"purposes":["comms"],"wikipedia_slug":null,"has_3d_model":false,"image_url":null,"decayed_at":null,"tle_current":{"epoch":"2026-05-25T02:39:19.874016Z","epoch_age_seconds":62101,"freshness":"FRESH","line1":"1 52098U 22029L   26145.11064669 -.00001468  00000+0 -74144-4 0  9994","line2":"2 52098  53.2139 106.0509 0001579  85.0692 275.0480 15.08845053232194","mean_motion":15.08845053,"eccentricity":0.0001579,"inclination_deg":53.2139,"raan_deg":106.0509,"arg_perigee_deg":85.0692,"mean_anomaly_deg":275.048,"bstar":-7.4144e-5,"rev_number":23219,"period_min":95.437235065117,"perigee_km":538.63561313303,"apogee_km":540.82027488235,"semimajor_km":6917.8649440077,"source":"CELESTRAK","updated_at":"2026-05-25T13:38:17.065453Z"}}}